Total_Precipitation_Accumulation
0.04 0.08 0.22 0.42 0.99 1.34 1.18 0.72 0.53 0.50 0.55 0.55 0.48 0.45 0.48 0.47 0.65 1.14 0.74 0.40 0.18 0.06 0.04 0.12 0.22 0.19 0.17 0.17 0.17 0.18 0.17 0.18 0.19 0.19 0.16 0.15 0.14 0.14 0.16 0.19 0.22 0.24 0.26 0.28 0.30 0.27 0.27 0.31 0.34
0.06 0.13 0.32 0.83 1.29 1.26 1.11 0.62 0.36 0.44 0.53 0.66 0.65 0.51 0.41 0.42 0.41 0.36 0.35 0.46 0.17 0.09 0.06 0.07 0.17 0.18 0.15 0.14 0.16 0.17 0.17 0.16 0.16 0.17 0.17 0.17 0.18 0.21 0.23 0.24 0.24 0.26 0.28 0.27 0.26 0.25 0.27 0.28 0.35
0.09 0.21 0.39 0.84 0.92 0.83 0.83 0.50 0.37 0.33 0.50 0.73 0.70 0.47 0.46 0.49 0.40 0.30 0.30 0.37 0.20 0.15 0.08 0.09 0.17 0.16 0.14 0.14 0.15 0.16 0.17 0.16 0.15 0.16 0.18 0.19 0.22 0.28 0.30 0.29 0.28 0.29 0.33 0.34 0.31 0.28 0.28 0.28 0.33
0.12 0.27 0.49 0.56 0.39 0.30 0.39 0.44 0.45 0.44 0.63 0.76 0.62 0.52 0.50 0.49 0.44 0.32 0.28 0.37 0.24 0.21 0.14 0.14 0.21 0.19 0.17 0.16 0.15 0.18 0.19 0.17 0.17 0.17 0.18 0.23 0.27 0.32 0.31 0.30 0.34 0.36 0.36 0.33 0.32 0.34 0.33 0.35 0.40
0.11 0.27 0.53 0.42 0.25 0.19 0.21 0.27 0.35 0.52 0.70 0.82 0.69 0.66 0.68 0.49 0.41 0.36 0.28 0.39 0.37 0.29 0.25 0.23 0.28 0.27 0.23 0.19 0.20 0.21 0.21 0.20 0.18 0.18 0.19 0.25 0.28 0.30 0.30 0.31 0.34 0.32 0.35 0.36 0.37 0.41 0.41 0.45 0.49
0.09 0.21 0.38 0.27 0.16 0.14 0.19 0.24 0.37 0.57 0.61 0.69 0.78 0.85 0.81 0.57 0.50 0.44 0.40 0.48 0.49 0.41 0.31 0.36 0.37 0.35 0.30 0.26 0.27 0.27 0.26 0.24 0.23 0.22 0.25 0.28 0.31 0.32 0.33 0.36 0.33 0.28 0.29 0.33 0.40 0.48 0.48 0.48 0.54
0.10 0.16 0.18 0.16 0.11 0.12 0.20 0.30 0.34 0.47 0.56 0.76 0.81 0.84 0.89 0.77 0.63 0.53 0.65 0.86 0.83 0.65 0.47 0.48 0.44 0.39 0.37 0.37 0.38 0.37 0.35 0.32 0.31 0.29 0.31 0.31 0.35 0.36 0.37 0.46 0.40 0.34 0.36 0.39 0.47 0.54 0.60 0.56 0.56
0.06 0.12 0.15 0.13 0.08 0.11 0.18 0.24 0.34 0.48 0.60 0.67 0.78 0.89 0.91 0.79 0.69 0.74 0.94 1.28 1.39 1.24 0.91 0.62 0.56 0.57 0.49 0.43 0.45 0.47 0.40 0.37 0.37 0.37 0.38 0.41 0.45 0.49 0.52 0.52 0.53 0.49 0.53 0.54 0.59 0.60 0.60 0.64 0.67
0.03 0.09 0.13 0.10 0.09 0.12 0.19 0.24 0.30 0.35 0.46 0.67 0.86 1.01 0.91 0.71 0.74 0.94 1.15 1.42 1.59 1.41 1.19 0.96 0.87 0.75 0.67 0.60 0.52 0.59 0.54 0.51 0.51 0.60 0.62 0.72 0.89 0.86 0.85 0.74 0.77 0.76 0.80 0.88 0.92 0.89 0.89 0.91 0.89
0.01 0.05 0.06 0.04 0.04 0.05 0.11 0.21 0.27 0.39 0.66 1.12 1.37 1.23 0.98 0.84 0.94 1.20 1.36 1.35 1.41 1.41 1.31 1.32 1.15 1.04 0.97 0.90 0.93 1.02 0.95 0.94 0.95 1.11 1.13 1.38 1.54 1.35 0.98 1.02 1.19 1.15 1.26 1.36 1.48 1.66 1.51 1.35 1.17
0.00 0.02 0.03 0.02 0.02 0.02 0.05 0.13 0.25 0.43 0.86 1.40 1.60 1.29 1.10 1.07 1.17 1.31 1.60 1.68 1.74 1.71 1.54 1.59 1.47 1.35 1.37 1.41 1.38 1.42 1.52 1.58 1.63 1.64 1.69 1.95 1.83 1.46 1.25 1.39 1.65 1.65 1.67 1.72 1.95 2.16 1.82 1.80 1.83
0.00 0.00 0.00 0.00 0.01 0.02 0.04 0.12 0.30 0.57 0.97 1.26 1.18 1.03 1.03 1.24 1.41 1.58 1.83 2.13 2.20 2.24 2.10 1.87 1.79 1.93 1.91 1.78 1.71 1.58 1.45 1.44 1.55 1.67 1.68 2.03 2.17 2.03 1.91 1.94 1.82 1.96 2.11 2.37 2.32 2.35 2.25 2.24 2.11
0.00 0.00 0.00 0.01 0.01 0.03 0.06 0.15 0.34 0.66 0.88 0.94 0.82 0.85 1.12 1.40 1.64 2.09 2.48 2.55 2.51 2.69 2.79 2.60 2.53 2.46 2.25 2.18 1.81 1.57 1.49 1.36 1.30 1.51 1.67 1.91 2.19 2.22 2.25 1.98 1.89 1.81 1.95 2.20 2.19 2.06 2.19 2.32 2.31
0.00 0.00 0.01 0.02 0.02 0.04 0.09 0.19 0.34 0.57 0.67 0.69 0.76 0.99 1.19 1.59 1.88 2.39 2.88 2.92 3.01 3.24 3.38 3.28 3.25 3.02 2.68 2.36 2.07 1.95 1.68 1.54 1.35 1.42 1.43 1.79 2.11 2.09 1.95 1.92 1.95 1.88 1.98 2.03 2.02 2.07 2.27 2.40 2.51
0.00 0.01 0.06 0.07 0.05 0.07 0.10 0.28 0.42 0.61 0.72 0.68 0.85 1.02 1.40 1.84 2.10 2.42 2.66 3.03 3.43 3.80 3.85 3.76 3.75 3.58 3.40 3.10 2.66 2.25 2.03 1.73 1.66 1.55 1.44 1.68 1.94 2.02 2.00 1.91 1.76 1.80 1.89 1.99 2.02 2.06 2.18 2.10 2.17
0.02 0.05 0.16 0.17 0.11 0.10 0.12 0.45 0.71 0.69 0.70 0.74 0.91 1.24 1.52 1.81 2.20 2.42 2.74 3.06 3.44 3.94 4.31 4.33 3.81 3.73 3.66 3.50 3.14 2.71 2.55 2.35 2.12 1.75 1.54 1.52 1.69 1.77 1.81 1.66 1.62 1.71 1.58 1.61 1.70 1.66 1.73 1.80 1.94
0.05 0.10 0.16 0.25 0.16 0.13 0.24 0.72 1.04 0.78 0.62 0.73 1.02 1.35 1.72 1.92 2.32 2.45 2.65 2.90 3.35 4.19 5.03 4.99 4.41 4.00 3.69 3.55 3.47 3.33 3.05 2.58 2.20 1.90 1.69 1.50 1.41 1.27 1.31 1.29 1.35 1.36 1.31 1.30 1.21 1.42 1.51 1.62 1.72
0.05 0.10 0.23 0.35 0.22 0.20 0.30 0.67 0.71 0.63 0.79 0.79 0.87 1.11 1.44 1.56 1.84 2.10 2.40 2.92 3.69 4.82 5.60 5.49 4.80 4.28 3.89 3.63 3.41 3.33 2.94 2.59 2.18 1.95 1.75 1.45 1.33 1.13 1.07 1.04 1.07 1.02 1.07 1.15 1.19 1.29 1.29 1.28 1.35
0.04 0.09 0.22 0.26 0.20 0.28 0.36 0.56 0.66 0.77 0.95 0.95 0.82 0.87 1.17 1.38 1.64 2.01 2.58 3.46 4.53 5.41 5.69 5.15 4.58 4.17 3.72 3.26 2.64 2.26 2.13 2.01 1.80 1.57 1.28 1.12 1.02 1.01 1.01 0.90 0.91 0.85 0.87 0.89 0.89 0.97 1.01 0.99 1.06
0.06 0.08 0.19 0.26 0.18 0.21 0.35 0.66 0.94 0.92 0.84 0.82 0.85 0.82 0.98 1.36 1.81 2.44 3.43 4.08 4.35 4.47 4.20 3.83 3.50 3.26 2.79 2.33 2.00 1.79 1.74 1.59 1.40 1.29 1.17 0.94 0.84 0.83 0.78 0.80 0.77 0.73 0.82 0.84 0.82 0.83 0.85 0.84 0.87
0.10 0.10 0.18 0.25 0.15 0.16 0.36 0.80 1.07 1.08 0.85 0.73 0.71 0.67 0.92 1.37 1.95 2.74 3.31 3.44 3.18 2.87 2.77 2.69 2.68 2.40 2.24 2.11 1.95 1.84 1.79 1.60 1.33 1.15 1.02 0.83 0.72 0.68 0.66 0.67 0.68 0.71 0.69 0.76 0.79 0.72 0.78 0.82 0.76
0.09 0.06 0.06 0.09 0.15 0.33 0.52 1.03 1.18 0.97 0.91 0.75 0.72 0.70 0.83 1.14 1.47 1.89 2.14 2.04 2.15 2.26 2.28 2.36 2.41 2.12 2.09 1.99 1.63 1.43 1.32 1.20 1.03 0.94 0.94 0.96 0.80 0.66 0.57 0.56 0.56 0.59 0.59 0.72 0.64 0.66 0.73 0.77 0.68
0.04 0.03 0.04 0.11 0.22 0.41 0.60 0.85 0.96 0.76 0.89 0.72 0.59 0.61 0.63 0.81 0.89 0.99 1.12 1.25 1.43 1.53 1.69 1.97 2.17 2.12 1.96 1.78 1.61 1.50 1.33 1.27 1.23 1.18 1.14 1.06 0.95 0.78 0.66 0.65 0.60 0.57 0.55 0.60 0.59 0.74 0.75 0.73 0.67
0.03 0.05 0.12 0.23 0.40 0.89 0.84 0.82 1.02 0.92 0.90 0.69 0.51 0.46 0.53 0.67 0.75 0.78 0.81 0.92 1.06 1.16 1.31 1.58 1.87 2.00 1.94 1.78 1.63 1.54 1.47 1.39 1.30 1.25 1.20 1.05 0.96 0.90 0.81 0.77 0.73 0.64 0.59 0.57 0.56 0.68 0.73 0.79 0.78
0.05 0.07 0.24 0.58 0.98 1.14 0.71 0.78 1.04 0.79 0.68 0.51 0.30 0.27 0.41 0.60 0.73 0.78 0.73 0.67 0.71 0.86 1.02 1.13 1.29 1.53 1.64 1.61 1.53 1.48 1.54 1.41 1.21 1.10 1.04 1.00 0.88 0.80 0.75 0.73 0.70 0.60 0.59 0.65 0.70 0.70 0.70 0.73 0.78
0.05 0.04 0.11 0.22 0.33 0.51 0.66 1.05 1.18 0.83 0.55 0.30 0.19 0.22 0.36 0.51 0.53 0.58 0.57 0.50 0.47 0.58 0.79 0.91 1.08 1.24 1.43 1.41 1.35 1.31 1.36 1.30 1.18 1.14 0.96 0.88 0.85 0.80 0.80 0.78 0.70 0.66 0.68 0.68 0.79 0.68 0.64 0.68 0.69
0.05 0.03 0.04 0.07 0.12 0.32 0.66 0.96 0.91 0.72 0.50 0.31 0.22 0.22 0.22 0.27 0.35 0.46 0.49 0.47 0.43 0.46 0.65 0.77 0.93 1.12 1.31 1.40 1.37 1.27 1.28 1.30 1.24 1.14 1.01 0.88 0.93 0.90 0.95 0.86 0.75 0.78 0.81 0.82 0.86 0.74 0.71 0.74 0.68
0.05 0.04 0.04 0.05 0.11 0.23 0.50 0.87 1.05 0.86 0.58 0.34 0.30 0.28 0.28 0.30 0.30 0.42 0.50 0.44 0.39 0.38 0.46 0.59 0.76 0.97 1.11 1.26 1.25 1.13 1.26 1.25 1.21 1.14 1.03 0.93 0.89 0.88 0.93 0.88 0.79 0.79 0.80 0.84 0.89 0.79 0.80 0.82 0.80
0.07 0.06 0.06 0.05 0.08 0.14 0.33 0.55 0.51 0.45 0.36 0.31 0.34 0.32 0.26 0.30 0.28 0.37 0.42 0.42 0.40 0.34 0.36 0.44 0.58 0.74 0.84 0.93 1.00 0.98 1.04 1.02 1.01 1.04 1.03 1.00 0.97 0.93 0.87 0.86 0.86 0.81 0.83 0.88 0.94 0.91 0.89 0.84 0.87
0.09 0.09 0.09 0.08 0.08 0.09 0.16 0.34 0.29 0.30 0.30 0.29 0.37 0.38 0.31 0.30 0.38 0.34 0.29 0.35 0.42 0.34 0.29 0.33 0.42 0.55 0.63 0.68 0.73 0.77 0.83 0.89 0.88 0.88 0.96 1.03 0.99 0.94 0.93 0.91 0.86 0.76 0.77 0.90 0.95 0.93 0.93 0.91 0.88